User: anonymous   Login
Location: Zaragoza
(41.6330°N, 0.8830°W)
Time: 09:02:22
(UTC+02:00)
Language:

ISS - Orbit

View from above orbital plane
View from above orbital plane
View from above satellite
View from above satellite

Ground track
Ground track

The orbit data is extracted from the following two-line orbital elements,

1 25544U 98067A   19167.52483547  .00016717  00000-0  10270-3 0  9021
2 25544  51.6401   4.5920 0008052  51.3769 308.8102 15.51206940 15141
Epoch (UTC): 16 June 2019 12:35:45
Eccentricity: 0.0008052
inclination: 51.6401°
perigee height: 408 km
apogee height: 418 km
right ascension of ascending node: 4.5920°
argument of perigee: 51.3769°
revolutions per day: 15.51206940
mean anomaly at epoch: 308.8102°
orbit number at epoch: 1514

The dashed part of the orbit path shows where the satellite is in the earth's shadow,  

DLR